20051115,000003,1036798,32.781163,-123.664086,0.0,20.285,17.876,26.162,147.96,0.0,0.197,17.137,17.096, NaN,11.461,   NaN,16.26,1018.79,89.36,16.49,350.8,353.5,17.4,16.4,348.5,351.6,14.3,13.3,NaN, NaN,16.0,358.3,7.0,1132012803,1132012802,1,5.7,000003,000002,358.3,32.781018,-123.664153,6.60,NaN,NaN,20.561, NaN,NaN,NaN, NaN, NaN,NaN
20051115,000033,1036827,32.781971,-123.664056,0.4,20.286,19.366,28.190,149.35,0.0,0.197,17.135,17.094, NaN,12.603,   NaN,16.10,1018.63,89.80,16.42,355.3,353.9,17.9,17.1,353.3,352.5,15.1,14.1,NaN, NaN,16.0,358.7,5.3,1132012833,1132012832,1,5.9,000033,000032,358.7,32.781811,-123.664148,NaN,NaN,NaN,20.562, NaN,NaN,NaN, NaN, NaN,NaN
20051115,000103,1036857,32.782750,-123.664028,0.0,20.288,32.989,45.970,158.51,0.0,0.198,17.134,17.092, NaN,23.067,   NaN,16.03,1019.09,90.40,16.38,357.1,355.4,17.6,17.0,355.0,354.0,14.9,14.0,NaN, NaN,16.0,358.3,357.9,1132012862,1132012862,1,5.0,000063,000062,358.3,32.782588,-123.664103,NaN,NaN,NaN,20.564, NaN,NaN,NaN, NaN, NaN,NaN
20051115,000133,1036887,32.783440,-123.664010,0.0,20.289,32.987,45.969,161.38,0.0,0.194,17.132,17.091, NaN,23.065,   NaN,15.90,1018.65,90.62,16.27,355.7,357.2,17.7,17.2,353.2,356.1,15.2,14.5,NaN, NaN,16.0,1.7,19.7,1132012893,1132012892,1,4.3,000093,000092,1.7,32.783276,-123.664103,NaN,NaN,NaN,20.565, NaN,NaN,NaN, NaN, NaN,NaN
20051115,000203,1036917,32.784165,-123.663945,0.0,20.291,32.988,45.971,160.06,0.0,0.198,17.131,17.091, NaN,23.065,   NaN,15.88,1018.37,90.96,16.24,357.0,358.4,17.2,16.4,355.1,358.0,14.8,13.8,NaN, NaN,17.0,359.6,27.2,1132012922,1132012922,1,5.4,000123,000122,359.6,32.784005,-123.664035,NaN,NaN,NaN,20.567, NaN,NaN,NaN, NaN, NaN,NaN
20051115,000233,1036947,32.784875,-123.664045,0.0,20.292,32.989,45.974,163.15,0.0,0.198,17.129,17.087, NaN,23.066,   NaN,15.87,1018.85,91.17,16.15,353.6,358.5,17.2,16.6,350.2,356.4,14.6,13.9,NaN, NaN,18.0,357.7,354.3,1132012953,1132012952,1,5.6,000153,000152,357.7,32.784720,-123.664100,5.94,NaN,NaN,20.568, NaN,NaN,NaN, NaN, NaN,NaN
20051115,000303,1036978,32.785603,-123.663970,0.0,20.293,32.986,45.971,188.89,0.0,0.200,17.125,17.085, NaN,23.063,   NaN,15.78,1018.98,91.14,16.09,349.5,355.7,17.4,16.6,346.9,354.2,14.7,13.9,NaN, NaN,18.0,1.5,27.5,1132012983,1132012982,1,3.7,000183,000182,1.5,32.785463,-123.664056,5.90,NaN,NaN,20.569, NaN,NaN,NaN, NaN, NaN,NaN
20051115,000333,1037007,32.786266,-123.663920,0.0,20.296,32.988,45.976,216.00,0.0,0.202,17.124,17.084, NaN,23.064,   NaN,15.79,1018.77,91.17,16.07,347.7,353.1,16.8,16.3,347.0,353.4,14.3,13.7,NaN, NaN,18.0,358.7,10.1,1132013012,1132013012,1,5.4,000213,000212,358.7,32.786110,-123.663988,4.70,NaN,NaN,20.572, NaN,NaN,NaN, NaN, NaN,NaN
20051115,000403,1037037,32.787000,-123.663963,0.0,20.297,32.986,45.975,255.93,0.0,0.205,17.123,17.081, NaN,23.062,   NaN,15.79,1019.04,91.13,16.09,351.6,356.3,16.6,16.8,349.0,354.6,14.1,14.2,NaN, NaN,17.0,357.7,10.3,1132013043,1132013042,1,6.3,000243,000242,358.8,32.786855,-123.664021,6.52,NaN,NaN,20.573, NaN,NaN,NaN, NaN, NaN,NaN
20051115,000433,1037067,32.787728,-123.663951,0.0,20.300,32.989,45.981,348.23,0.0,0.213,17.121,17.081, NaN,23.064,   NaN,15.91,1018.84,91.33,16.13,353.4,358.8,16.7,16.1,350.8,357.3,14.0,13.4,NaN, NaN,18.0,1.7,11.3,1132013072,1132013072,1,5.6,000272,000272,1.7,32.787606,-123.664018,5.17,NaN,NaN,20.576, NaN,NaN,NaN, NaN, NaN,NaN
20051115,000503,1037097,32.788563,-123.663938,0.0,20.301,32.989,45.983,1004.73,0.0,0.277,17.121,17.081, NaN,23.064,   NaN,15.90,1018.90,91.15,16.13,352.2,357.5,16.5,15.9,351.1,357.4,13.7,13.1,NaN, NaN,16.0,0.5,6.2,1132013103,1132013102,1,6.2,000303,000302,0.5,32.788416,-123.664008,5.75,NaN,NaN,20.577, NaN,NaN,NaN, NaN, NaN,NaN
20051115,000533,1037128,32.789426,-123.663956,0.0,20.303,32.988,45.983,726.57,0.0,0.248,17.117,17.078, NaN,23.062,   NaN,15.98,1018.69,91.12,16.22,353.3,358.3,16.6,16.3,351.7,357.9,13.6,13.3,NaN, NaN,16.0,358.7,1.9,1132013132,1132013132,1,5.2,000333,000332,358.7,32.789263,-123.664011,5.74,NaN,NaN,20.579, NaN,NaN,NaN, NaN, NaN,NaN
20051115,000603,1037157,32.790250,-123.663923,0.0,20.304,32.987,45.983,292.97,0.0,0.208,17.114,17.073, NaN,23.062,   NaN,15.91,1018.61,90.55,16.16,353.8,0.1,17.1,16.9,352.2,359.7,14.0,13.7,NaN, NaN,16.0,0.8,18.0,1132013162,1132013162,1,5.9,000363,000362,0.8,32.790103,-123.663996,5.86,NaN,NaN,20.580, NaN,NaN,NaN, NaN, NaN,NaN
20051115,000633,1037187,32.791040,-123.663933,0.0,20.306,32.987,45.985,284.56,0.0,0.208,17.113,17.070, NaN,23.061,   NaN,15.91,1018.98,90.13,16.10,353.3,359.9,17.0,16.9,351.4,359.4,14.0,13.9,NaN, NaN,15.0,0.5,354.6,1132013193,1132013192,1,6.7,000393,000392,0.5,32.790905,-123.663990,6.06,NaN,NaN,20.582, NaN,NaN,NaN, NaN, NaN,NaN
20051115,000703,1037217,32.791805,-123.663900,0.0,20.309,32.980,45.979,253.76,0.0,0.205,17.109,17.067, NaN,23.055,   NaN,15.98,1018.98,89.96,16.14,356.1,359.5,17.2,16.7,354.7,358.8,14.3,13.8,NaN, NaN,15.0,357.3,1.5,1132013222,1132013222,1,5.0,000423,000422,357.3,32.791660,-123.663935,5.94,NaN,NaN,20.585, NaN,NaN,NaN, NaN, NaN,NaN
20051115,000734,1037248,32.792576,-123.663905,0.0,20.310,32.984,45.985,217.64,0.0,0.202,17.106,17.066, NaN,23.058,   NaN,16.01,1018.70,89.66,16.18,356.3,359.0,17.9,17.3,355.0,358.1,15.0,14.4,NaN, NaN,16.0,1.3,353.0,1132013253,1132013252,1,5.8,000453,000452,1.3,32.792438,-123.663970,5.68,NaN,NaN,20.586, NaN,NaN,NaN, NaN, NaN,NaN
20051115,000804,1037278,32.793416,-123.663918,0.0,20.311,32.987,45.990,190.91,0.0,0.200,17.100,17.061, NaN,23.059,   NaN,16.06,1018.79,89.46,16.20,355.7,359.6,17.8,17.7,354.4,359.0,14.8,14.8,NaN, NaN,16.0,0.0,345.9,1132013283,1132013282,1,6.9,000483,000482,0.0,32.793266,-123.663968,5.07,NaN,NaN,20.587, NaN,NaN,NaN, NaN, NaN,NaN
20051115,000834,1037308,32.794195,-123.663893,0.0,20.313,32.987,45.992,162.26,0.0,0.198,17.097,17.059, NaN,23.059,   NaN,16.08,1018.71,89.44,16.22,354.8,359.5,18.1,17.3,354.0,359.6,15.1,14.3,NaN, NaN,17.0,0.7,10.3,1132013313,1132013312,1,5.1,000513,000512,0.7,32.794041,-123.663936,6.11,NaN,NaN,20.589, NaN,NaN,NaN, NaN, NaN,NaN
20051115,000903,1037337,32.794958,-123.663840,0.0,20.314,32.987,45.993,147.10,0.0,0.197,17.094,17.057, NaN,23.058,   NaN,16.05,1018.79,89.58,16.23,350.1,355.7,18.3,16.7,348.6,355.1,15.4,13.8,NaN, NaN,17.0,1.2,9.4,1132013343,1132013342,1,6.4,000543,000542,1.2,32.794815,-123.663901,NaN,NaN,NaN,20.590, NaN,NaN,NaN, NaN, NaN,NaN
20051115,000933,1037367,32.795701,-123.663816,0.0,20.316,32.983,45.991,147.78,0.0,0.197,17.094,17.054, NaN,23.055,   NaN,16.01,1018.42,89.96,16.23,349.7,354.3,18.1,17.1,348.1,353.3,15.4,14.4,NaN, NaN,17.0,358.9,351.6,1132013372,1132013372,1,5.7,000573,000572,358.9,32.795538,-123.663878,6.47,NaN,NaN,20.592, NaN,NaN,NaN, NaN, NaN,NaN
20051115,001003,1037397,32.796433,-123.663793,0.0,20.318,32.987,45.996,166.20,0.0,0.198,17.090,17.051, NaN,23.057,   NaN,15.92,1018.63,90.21,16.19,350.6,355.0,18.3,17.4,348.6,353.7,15.6,14.7,NaN, NaN,17.0,0.5,359.5,1132013403,1132013402,1,5.6,000603,000602,0.5,32.796283,-123.663856,4.90,NaN,NaN,20.594, NaN,NaN,NaN, NaN, NaN,NaN
20051115,001033,1037427,32.797140,-123.663755,0.0,20.321,32.976,45.984,194.13,0.0,0.204,17.087,17.048, NaN,23.049,   NaN,15.89,1018.88,90.57,16.16,352.0,354.9,17.6,16.4,350.1,353.4,15.0,13.8,NaN, NaN,17.0,358.1,8.0,1132013433,1132013432,1,5.0,000633,000632,358.1,32.796980,-123.663825,5.05,NaN,NaN,20.596, NaN,NaN,NaN, NaN, NaN,NaN
20051115,001103,1037458,32.797896,-123.663810,0.0,20.323,32.929,45.929,238.14,0.0,0.200,17.083,17.043, NaN,23.012,   NaN,15.96,1018.82,91.03,16.19,352.1,355.7,16.4,15.7,349.5,353.9,13.7,13.1,NaN, NaN,16.0,358.5,343.8,1132013463,1132013462,1,6.0,000663,000662,358.5,32.797731,-123.663858,5.49,NaN,NaN,20.598, NaN,NaN,NaN, NaN, NaN,NaN
20051115,001133,1037487,32.798670,-123.663785,0.0,20.325,32.986,46.001,278.88,0.0,0.207,17.081,17.040, NaN,23.055,   NaN,15.90,1018.77,91.04,16.20,350.5,355.9,16.7,15.5,348.2,354.6,14.0,12.7,NaN, NaN,16.0,1.3,343.0,1132013492,1132013492,1,5.7,000693,000692,1.3,32.798518,-123.663835,5.55,NaN,NaN,20.600, NaN,NaN,NaN, NaN, NaN,NaN
20051115,001203,1037517,32.799346,-123.663800,0.0,20.326,32.989,46.006,343.29,0.0,0.217,17.074,17.034, NaN,23.057,   NaN,15.84,1019.03,90.50,16.08,352.5,357.1,17.9,16.5,350.1,355.5,15.1,13.7,NaN, NaN,16.0,356.1,342.3,1132013523,1132013522,1,5.3,000723,000722,356.1,32.799193,-123.663840,7.13,NaN,NaN,20.601, NaN,NaN,NaN, NaN, NaN,NaN
20051115,001233,1037547,32.800036,-123.663755,0.0,20.328,32.979,45.995,352.42,0.0,0.209,17.069,17.028, NaN,23.049,   NaN,15.84,1018.62,89.93,16.09,355.3,359.0,18.0,17.5,353.9,358.1,15.4,14.9,NaN, NaN,16.0,3.8,27.7,1132013552,1132013552,1,4.4,000753,000752,3.8,32.799883,-123.663820,5.75,NaN,NaN,20.603, NaN,NaN,NaN, NaN, NaN,NaN
20051115,001303,1037577,32.800783,-123.663776,0.0,20.330,32.951,45.963,326.08,0.0,0.211,17.064,17.023, NaN,23.027,   NaN,15.92,1018.50,89.70,16.06,354.6,357.8,17.7,17.5,353.6,357.3,15.1,14.9,NaN, NaN,16.0,359.3,345.9,1132013583,1132013582,1,6.0,000783,000782,359.3,32.800646,-123.663828,NaN,NaN,NaN,20.605, NaN,NaN,NaN, NaN, NaN,NaN
20051115,001334,1037608,32.801578,-123.663761,0.0,20.332,32.986,46.008,277.62,0.0,0.207,17.060,17.019, NaN,23.054,   NaN,15.90,1018.94,89.27,16.07,349.5,356.3,18.3,18.1,347.2,355.0,15.6,15.3,NaN, NaN,16.0,1.0,355.0,1132013613,1132013612,1,5.3,000813,000812,1.0,32.801420,-123.663818,5.94,NaN,NaN,20.607, NaN,NaN,NaN, NaN, NaN,NaN
20051115,001403,1037638,32.802468,-123.663745,0.0,20.333,32.987,46.009,261.67,0.0,0.206,17.057,17.016, NaN,23.054,   NaN,16.03,1018.48,89.42,16.16,352.4,359.0,18.6,17.9,351.3,359.0,15.6,14.9,NaN, NaN,15.0,0.6,2.1,1132013643,1132013642,1,6.9,000843,000842,0.9,32.802311,-123.663800,6.56,NaN,NaN,20.608, NaN,NaN,NaN, NaN, NaN,NaN
20051115,001434,1037668,32.803256,-123.663736,0.0,20.334,21.295,30.818,238.37,0.0,0.208,17.053,17.012, NaN,14.069,   NaN,16.04,1018.58,89.26,16.17,356.9,0.2,18.2,17.5,356.1,0.2,15.1,14.4,NaN, NaN,16.0,358.5,3.0,1132013673,1132013672,1,5.2,000873,000872,358.5,32.803116,-123.663781,5.70,NaN,NaN,20.609, NaN,NaN,NaN, NaN, NaN,NaN
20051115,001503,1037697,32.803966,-123.663706,0.0,20.336,28.517,40.309,229.18,0.0,0.203,17.049,17.009, NaN,19.612,   NaN,16.04,1018.41,89.17,16.17,358.2,359.9,18.4,18.0,357.3,359.3,15.5,15.1,NaN, NaN,17.0,358.8,5.5,1132013703,1132013702,1,5.3,000903,000902,358.2,32.803816,-123.663748,5.87,NaN,NaN,20.611, NaN,NaN,NaN, NaN, NaN,NaN
20051115,001533,1037727,32.804665,-123.663713,0.4,20.337,23.741,34.077,262.90,0.0,0.206,17.042,17.002, NaN,15.945,   NaN,15.98,1018.86,89.08,16.19,359.8,1.3,18.0,17.9,358.9,0.6,15.3,15.3,NaN, NaN,17.0,359.3,2.4,1132013733,1132013732,1,5.3,000933,000932,358.7,32.804511,-123.663753,5.25,NaN,NaN,20.612, NaN,NaN,NaN, NaN, NaN,NaN
20051115,001603,1037757,32.805455,-123.663708,0.0,20.338,32.989,46.019,284.97,0.0,0.208,17.039,16.998, NaN,23.054,   NaN,15.98,1018.87,88.98,16.14,353.0,1.8,18.1,18.4,351.9,1.4,15.8,15.7,NaN, NaN,16.0,0.7,2.4,1132013763,1132013762,1,6.3,000963,000962,0.7,32.805306,-123.663773,5.58,NaN,NaN,20.613, NaN,NaN,NaN, NaN, NaN,NaN
20051115,001633,1037787,32.806296,-123.663706,0.3,20.340,29.758,41.911,290.52,0.0,0.208,17.034,16.992, NaN,20.566,   NaN,15.97,1018.84,88.78,16.17,351.9,2.7,18.6,18.8,350.9,2.9,16.1,15.8,NaN, NaN,15.0,359.1,356.8,1132013792,1132013792,1,6.3,000993,000992,359.1,32.806140,-123.663773,5.53,NaN,NaN,20.615, NaN,NaN,NaN, NaN, NaN,NaN
20051115,001704,1037818,32.807045,-123.663691,0.0,20.341,17.630,25.857,272.21,0.0,0.207,17.031,16.988, NaN,11.260,   NaN,16.05,1018.69,89.06,16.22,359.6,3.4,16.7,17.0,359.5,3.9,13.8,14.1,NaN, NaN,15.0,358.7,7.0,1132013823,1132013822,1,5.7,001023,001022,358.7,32.806891,-123.663726,4.60,NaN,NaN,20.616, NaN,NaN,NaN, NaN, NaN,NaN
20051115,001733,1037847,32.807725,-123.663646,0.0,20.343,22.385,32.281,250.10,0.0,0.205,17.027,16.985, NaN,14.903,   NaN,16.07,1018.41,89.11,16.21,359.3,1.1,16.0,16.1,358.9,0.9,13.3,13.4,NaN, NaN,15.0,359.5,15.6,1132013853,1132013852,1,5.0,001053,001052,359.5,32.807585,-123.663700,4.97,NaN,NaN,20.618, NaN,NaN,NaN, NaN, NaN,NaN
20051115,001803,1037877,32.808493,-123.663655,0.0,20.345,19.777,28.781,199.03,0.0,0.196,17.022,16.980, NaN,12.903,   NaN,16.08,1018.44,88.92,16.25,352.7,359.6,17.1,16.4,351.8,359.1,14.9,13.7,NaN, NaN,15.0,0.0,2.1,1132013883,1132013882,1,5.7,001083,001082,0.0,32.808351,-123.663688,5.56,NaN,NaN,20.620, NaN,NaN,NaN, NaN, NaN,NaN
20051115,001833,1037907,32.809211,-123.663675,0.0,20.346,20.910,30.310,149.97,0.0,0.197,17.016,16.976, NaN,13.771,   NaN,16.13,1018.33,88.85,16.27,0.2,1.8,16.9,16.5,359.9,1.7,15.2,13.8,NaN, NaN,16.0,359.2,0.6,1132013912,1132013912,1,4.7,001113,001112,359.2,32.809063,-123.663721,5.85,NaN,NaN,20.621, NaN,NaN,NaN, NaN, NaN,NaN
20051115,001903,1037937,32.809921,-123.663643,0.0,20.347,17.910,26.243,130.18,0.0,0.195,17.012,16.969, NaN,11.473,   NaN,16.13,1018.55,88.73,16.29,5.8,4.2,16.9,17.2,6.2,4.9,14.7,14.5,NaN, NaN,16.0,1.8,12.6,1132013942,1132013942,1,4.9,001143,001142,1.8,32.809785,-123.663701,4.82,NaN,NaN,20.622, NaN,NaN,NaN, NaN, NaN,NaN
20051115,001933,1037968,32.810531,-123.663620,0.0,20.350,32.978,46.017,119.40,0.0,0.190,17.008,16.965, NaN,23.043,   NaN,16.10,1018.40,88.51,16.27,2.2,5.1,16.4,16.8,2.8,6.2,14.0,14.3,NaN, NaN,16.0,358.1,16.9,1132013973,1132013972,1,5.2,001173,001172,358.1,32.810376,-123.663656,NaN,NaN,NaN,20.625, NaN,NaN,NaN, NaN, NaN,NaN
20051115,002003,1037997,32.811193,-123.663598,0.0,20.351,32.983,46.023,115.28,0.0,0.190,17.002,16.961, NaN,23.046,   NaN,16.15,1018.83,88.62,16.32,360.0,3.4,15.4,15.5,359.7,3.8,13.0,13.2,NaN, NaN,16.0,2.5,12.5,1132014003,1132014002,1,4.7,001203,001202,2.5,32.811035,-123.663670,5.45,NaN,NaN,20.626, NaN,NaN,NaN, NaN, NaN,NaN
20051115,002033,1038027,32.811860,-123.663590,0.0,20.352,32.986,46.028,109.22,0.0,0.190,17.000,16.957, NaN,23.048,   NaN,16.19,1018.64,88.84,16.36,355.3,1.3,14.5,14.9,354.1,1.3,12.1,12.5,NaN, NaN,15.0,357.0,12.0,1132014033,1132014032,1,5.7,001233,001232,357.0,32.811710,-123.663641,5.23,NaN,NaN,20.627, NaN,NaN,NaN, NaN, NaN,NaN
20051115,002103,1038057,32.812571,-123.663621,0.0,20.355,32.983,46.027,103.40,0.0,0.197,16.993,16.955, NaN,23.045,   NaN,16.20,1018.93,88.93,16.38,0.9,1.4,14.7,15.3,359.3,1.0,12.4,12.8,NaN, NaN,16.0,359.5,350.9,1132014062,1132014062,1,6.0,001263,001262,359.5,32.812413,-123.663665,5.47,NaN,NaN,20.630, NaN,NaN,NaN, NaN, NaN,NaN
20051115,002134,1038088,32.813280,-123.663611,0.0,20.356,32.975,46.018,97.78,0.0,0.193,16.991,16.951, NaN,23.038,   NaN,16.22,1018.85,89.07,16.39,3.5,1.9,15.4,15.8,2.4,1.5,13.1,13.2,NaN, NaN,17.0,359.7,2.4,1132014093,1132014092,1,6.4,001293,001292,359.7,32.813125,-123.663660,4.19,NaN,NaN,20.631, NaN,NaN,NaN, NaN, NaN,NaN
20051115,002203,1038117,32.814058,-123.663588,0.0,20.359,32.983,46.031,97.08,0.0,0.193,16.988,16.945, NaN,23.044,   NaN,16.25,1018.73,89.28,16.46,355.7,0.4,15.4,15.5,354.8,0.7,12.7,12.8,NaN, NaN,16.0,1.6,3.9,1132014123,1132014122,1,6.8,001323,001322,1.6,32.813901,-123.663636,5.68,NaN,NaN,20.634, NaN,NaN,NaN, NaN, NaN,NaN
20051115,002233,1038148,32.814903,-123.663580,0.0,20.360,20.536,29.816,97.67,0.0,0.193,16.986,16.944, NaN,13.481,   NaN,16.26,1018.50,89.37,16.48,359.6,359.6,15.7,15.6,359.4,359.8,12.8,12.7,NaN, NaN,15.0,0.8,351.9,1132014152,1132014152,1,5.9,001353,001352,0.8,32.814748,-123.663638,5.57,NaN,NaN,20.635, NaN,NaN,NaN, NaN, NaN,NaN
20051115,002303,1038177,32.815721,-123.663588,0.0,20.361,19.988,29.078,91.93,0.0,0.192,16.984,16.943, NaN,13.062,   NaN,16.18,1018.76,89.21,16.44,359.8,359.3,16.3,16.2,359.1,358.8,13.3,13.1,NaN, NaN,13.0,359.0,344.5,1132014183,1132014182,1,4.7,001383,001382,359.0,32.815556,-123.663625,5.31,NaN,NaN,20.636, NaN,NaN,NaN, NaN, NaN,NaN
20051115,002334,1038209,32.816593,-123.663605,0.0,20.364,18.451,26.991,84.51,0.0,0.188,16.983,16.940, NaN,11.883,   NaN,16.17,1018.83,89.45,16.43,352.9,356.5,16.6,16.1,350.4,354.8,13.6,13.1,NaN, NaN,13.0,359.8,344.2,1132014213,1132014213,1,6.9,001414,001413,359.8,32.816438,-123.663645,5.97,NaN,NaN,20.639, NaN,NaN,NaN, NaN, NaN,NaN
20051115,002403,1038237,32.817388,-123.663551,0.0,20.365,27.143,38.555,88.94,0.0,0.192,16.978,16.937, NaN,18.549,   NaN,16.13,1018.71,89.92,16.42,352.6,356.5,16.6,16.0,350.6,355.2,13.6,12.9,NaN, NaN,13.0,2.0,15.0,1132014243,1132014242,1,6.6,001443,001442,2.0,32.817236,-123.663626,6.78,NaN,NaN,20.640, NaN,NaN,NaN, NaN, NaN,NaN
20051115,002434,1038268,32.818206,-123.663536,0.0,20.367,32.990,46.047,93.89,0.0,0.188,16.974,16.937, NaN,23.047,   NaN,16.07,1018.36,90.27,16.40,354.3,358.9,16.5,16.0,352.6,358.1,13.5,13.0,NaN, NaN,13.0,357.8,8.2,1132014273,1132014272,1,6.3,001473,001472,357.8,32.818040,-123.663588,6.08,NaN,NaN,20.642, NaN,NaN,NaN, NaN, NaN,NaN
20051115,002503,1038297,32.818851,-123.663533,0.0,20.369,24.203,34.709,99.25,0.0,0.185,16.974,16.936, NaN,16.291,   NaN,15.97,1018.40,90.36,16.29,355.5,359.4,16.4,15.9,353.9,358.5,13.6,13.1,NaN, NaN,13.0,359.4,6.2,1132014302,1132014302,1,4.4,001503,001502,359.4,32.818691,-123.663585,4.84,NaN,NaN,20.644, NaN,NaN,NaN, NaN, NaN,NaN
20051115,002533,1038328,32.819635,-123.663560,0.0,20.371,32.986,46.045,100.23,0.0,0.197,16.973,16.934, NaN,23.043,   NaN,15.97,1018.48,90.69,16.29,355.4,358.6,16.3,15.8,353.8,357.5,13.7,13.2,NaN, NaN,13.0,358.8,1.8,1132014333,1132014332,1,5.8,001533,001532,358.8,32.819470,-123.663620,6.08,NaN,NaN,20.646, NaN,NaN,NaN, NaN, NaN,NaN
20051115,002603,1038357,32.820483,-123.663565,0.0,20.372,32.988,46.050,120.45,0.0,0.195,16.970,16.932, NaN,23.044,   NaN,15.91,1018.63,90.73,16.25,352.7,357.6,16.9,16.2,350.7,356.6,14.0,13.3,NaN, NaN,13.0,2.5,356.8,1132014363,1132014362,1,6.9,001563,001562,2.5,32.820326,-123.663640,6.36,NaN,NaN,20.647, NaN,NaN,NaN, NaN, NaN,NaN
20051115,002633,1038387,32.821283,-123.663531,0.0,20.374,32.988,46.052,149.45,0.0,0.197,16.969,16.930, NaN,23.044,   NaN,15.89,1018.62,90.79,16.21,352.2,357.3,17.3,16.5,350.2,356.1,14.3,13.4,NaN, NaN,13.0,357.4,350.3,1132014392,1132014392,1,6.3,001593,001592,357.9,32.821111,-123.663580,6.19,NaN,NaN,20.649, NaN,NaN,NaN, NaN, NaN,NaN
20051115,002704,1038418,32.822036,-123.663496,0.0,20.375,32.989,46.053,174.89,0.0,0.195,16.967,16.927, NaN,23.044,   NaN,15.92,1018.57,90.65,16.16,356.8,358.9,17.1,16.7,354.4,358.1,14.6,13.8,NaN, NaN,13.0,0.8,5.2,1132014423,1132014423,1,5.8,001624,001623,0.8,32.821875,-123.663553,5.49,NaN,NaN,20.650, NaN,NaN,NaN, NaN, NaN,NaN
20051115,002734,1038448,32.822850,-123.663496,0.0,20.376,32.988,46.054,156.89,0.0,0.197,16.967,16.925, NaN,23.043,   NaN,15.98,1018.27,90.63,16.23,356.0,358.6,16.7,16.4,353.8,358.3,14.2,13.6,NaN, NaN,13.0,1.0,350.1,1132014453,1132014452,1,6.9,001653,001652,1.0,32.822690,-123.663551,6.01,NaN,NaN,20.651, NaN,NaN,NaN, NaN, NaN,NaN
20051115,002803,1038478,32.823523,-123.663481,0.0,20.379,32.987,46.055,146.99,0.0,0.192,16.967,16.924, NaN,23.042,   NaN,16.01,1018.27,90.22,16.21,355.5,358.6,16.3,16.4,354.0,358.3,13.7,13.6,NaN, NaN,13.0,358.8,336.6,1132014483,1132014482,1,5.0,001683,001682,358.8,32.823355,-123.663525,5.72,NaN,NaN,20.654, NaN,NaN,NaN, NaN, NaN,NaN
20051115,002833,1038507,32.824271,-123.663463,0.0,20.381,32.987,46.057,131.10,0.0,0.195,16.966,16.924, NaN,23.041,   NaN,16.04,1018.59,89.72,16.20,355.7,359.6,16.8,17.0,354.7,359.4,14.1,14.3,NaN, NaN,13.0,359.9,352.5,1132014513,1132014512,1,5.8,001713,001712,359.9,32.824118,-123.663496,5.10,NaN,NaN,20.656, NaN,NaN,NaN, NaN, NaN,NaN
20051115,002904,1038538,32.825071,-123.663430,0.0,20.383,32.986,46.057,120.80,0.0,0.195,16.964,16.924, NaN,23.040,   NaN,16.07,1018.41,89.14,16.20,357.1,0.3,17.6,17.6,356.3,0.1,14.8,14.8,NaN, NaN,13.0,359.9,343.2,1132014543,1132014543,1,5.9,001743,001743,359.9,32.824935,-123.663490,6.30,NaN,NaN,20.658, NaN,NaN,NaN, NaN, NaN,NaN
20051115,002933,1038567,32.825906,-123.663426,0.0,20.384,32.988,46.061,107.48,0.0,0.194,16.964,16.924, NaN,23.041,   NaN,16.08,1018.00,88.61,16.20,357.8,0.7,18.2,18.0,357.0,0.6,15.3,15.1,NaN, NaN,13.0,358.5,351.3,1132014572,1132014572,1,5.4,001773,001772,358.5,32.825736,-123.663458,6.46,NaN,NaN,20.659, NaN,NaN,NaN, NaN, NaN,NaN
20051115,003003,1038597,32.826638,-123.663388,0.0,20.387,32.817,45.848,91.06,0.0,0.184,16.964,16.923, NaN,22.908,   NaN,16.10,1018.32,88.31,16.21,2.7,1.3,17.6,18.1,2.1,1.2,14.9,15.2,NaN, NaN,14.0,358.0,10.3,1132014602,1132014602,1,5.1,001803,001802,358.0,32.826473,-123.663423,5.49,NaN,NaN,20.662, NaN,NaN,NaN, NaN, NaN,NaN
20051115,003034,1038628,32.827451,-123.663358,0.0,20.389,21.304,30.866,84.11,0.0,0.192,16.964,16.922, NaN,14.063,   NaN,16.13,1018.30,88.21,16.24,359.7,0.1,17.4,18.0,358.0,359.5,14.8,15.2,NaN, NaN,14.0,359.8,7.7,1132014633,1132014633,1,5.7,001833,001833,359.8,32.827311,-123.663416,6.35,NaN,NaN,20.664, NaN,NaN,NaN, NaN, NaN,NaN
20051115,003103,1038658,32.828288,-123.663383,0.0,20.390,17.459,25.648,80.68,0.0,0.187,16.963,16.919, NaN,11.117,   NaN,16.13,1018.59,88.15,16.26,355.2,359.9,18.1,18.0,353.7,359.2,15.1,15.0,NaN, NaN,14.0,0.7,11.0,1132014663,1132014662,1,6.4,001863,001862,0.7,32.828128,-123.663436,6.40,NaN,NaN,20.665, NaN,NaN,NaN, NaN, NaN,NaN
20051115,003133,1038687,32.829170,-123.663365,0.0,20.391,32.991,46.071,85.07,0.0,0.184,16.962,16.919, NaN,23.041,   NaN,16.17,1018.55,88.41,16.30,354.9,359.6,18.2,17.9,353.7,359.3,15.1,14.8,NaN, NaN,14.0,359.5,359.4,1132014693,1132014692,1,6.5,001893,001892,359.5,32.828996,-123.663415,6.38,NaN,NaN,20.666, NaN,NaN,NaN, NaN, NaN,NaN
20051115,003203,1038717,32.830050,-123.663336,0.0,20.391,32.991,46.071,85.93,0.0,0.188,16.961,16.920, NaN,23.042,   NaN,16.13,1018.41,88.41,16.31,353.3,357.9,18.1,17.4,352.1,357.5,14.9,14.2,NaN, NaN,14.0,359.7,356.3,1132014723,1132014722,1,6.2,001923,001922,359.7,32.829876,-123.663383,6.17,NaN,NaN,20.666, NaN,NaN,NaN, NaN, NaN,NaN
20051115,003233,1038747,32.830928,-123.663328,0.0,20.392,32.991,46.072,87.86,0.0,0.192,16.961,16.920, NaN,23.041,   NaN,16.17,1018.51,88.71,16.34,352.7,357.4,17.5,16.5,350.9,356.6,14.3,13.2,NaN, NaN,14.0,0.3,12.2,1132014753,1132014752,1,5.9,001953,001952,0.3,32.830771,-123.663370,6.62,NaN,NaN,20.667, NaN,NaN,NaN, NaN, NaN,NaN
20051115,003303,1038777,32.831686,-123.663286,0.0,20.392,32.991,46.072,91.25,0.0,0.192,16.962,16.920, NaN,23.041,   NaN,16.24,1018.59,89.20,16.43,353.6,356.6,15.9,14.9,352.4,356.1,12.8,11.8,NaN, NaN,13.0,359.3,355.7,1132014783,1132014782,1,5.6,001983,001982,359.3,32.831526,-123.663328,5.90,NaN,NaN,20.667, NaN,NaN,NaN, NaN, NaN,NaN
20051115,003334,1038808,32.832490,-123.663285,0.0,20.393,32.992,46.074,96.63,0.0,0.189,16.964,16.920, NaN,23.041,   NaN,16.21,1018.29,89.12,16.39,354.6,357.1,15.9,15.1,353.3,356.2,13.0,12.2,NaN, NaN,13.0,358.0,356.5,1132014813,1132014812,1,6.0,002013,002012,358.0,32.832335,-123.663318,5.19,NaN,NaN,20.668, NaN,NaN,NaN, NaN, NaN,NaN
20051115,003404,1038838,32.833290,-123.663251,0.0,20.399,32.988,46.074,93.39,0.0,0.188,16.962,16.921, NaN,23.037,   NaN,16.15,1018.72,88.91,16.39,358.3,1.7,16.9,16.5,355.5,1.4,14.8,13.5,NaN, NaN,13.0,3.3,18.5,1132014843,1132014842,1,5.3,002043,002042,3.3,32.833135,-123.663301,6.73,NaN,NaN,20.673, NaN,NaN,NaN, NaN, NaN,NaN
20051115,003433,1038867,32.833946,-123.663245,0.0,20.402,32.989,46.079,100.31,0.0,0.189,16.964,16.922, NaN,23.037,   NaN,16.14,1019.01,88.69,16.35,2.7,2.0,16.6,16.7,1.1,1.9,14.7,13.9,NaN, NaN,14.0,356.3,14.7,1132014873,1132014872,1,4.9,002073,002072,356.3,32.833788,-123.663283,4.63,NaN,NaN,20.676, NaN,NaN,NaN, NaN, NaN,NaN
20051115,003504,1038899,32.834676,-123.663266,0.0,20.404,32.684,45.697,103.32,0.0,0.193,16.964,16.924, NaN,22.803,   NaN,16.21,1018.36,88.94,16.42,359.3,0.7,16.1,16.3,358.4,0.1,13.6,13.8,NaN, NaN,14.0,358.8,353.8,1132014904,1132014903,1,5.2,002104,002103,358.8,32.834523,-123.663288,5.05,NaN,NaN,20.678, NaN,NaN,NaN, NaN, NaN,NaN
20051115,003534,1038928,32.835446,-123.663238,0.0,20.406,32.988,46.082,104.14,0.0,0.197,16.966,16.926, NaN,23.036,   NaN,16.19,1018.47,88.88,16.39,356.1,0.6,16.2,16.0,355.0,0.4,13.5,13.3,NaN, NaN,13.0,359.2,357.0,1132014934,1132014933,1,6.0,002134,002133,359.2,32.835293,-123.663271,5.85,NaN,NaN,20.680, NaN,NaN,NaN, NaN, NaN,NaN